When you browse on this site, cookies collect data to enhance your experience and personalize the content and advertising you see.
Visit our Privacy Policy to learn more. By continuing to use the site, you agree to this use of cookies and data.

Tiempo cada hora Labé

Hoy, 20 Septiembre, Domingo

Tiempo Temperatura Precipitaciones Viento Presión Humedad
00:00 +19°C° 0 mm 0 mps 673 mmHg 94%
01:00 +18°C° 0 mm 0 mps 673 mmHg 94%
02:00 +18°C° 0 mm 0 mps 672 mmHg 95%
03:00 +18°C° 0 mm 0 mps 672 mmHg 95%
04:00 +18°C° 0 mm 0 mps 672 mmHg 95%
05:00 +17°C° 0 mm 0 mps 673 mmHg 96%
06:00 +19°C° 0.6 mm 0 mps 673 mmHg 93%
07:00 +20°C° 0.6 mm 0 mps 674 mmHg 91%
08:00 +22°C° 0.6 mm 0 mps 675 mmHg 89%
09:00 +25°C° 1 mm 1 mps 675 mmHg 83%
10:00 +26°C° 1 mm 1 mps 675 mmHg 77%
11:00 +27°C° 1 mm 1 mps 675 mmHg 71%
12:00 +27°C° 0.5 mm 1 mps 674 mmHg 71%
13:00 +27°C° 0.5 mm 1 mps 674 mmHg 72%
14:00 +27°C° 0.5 mm 1 mps 673 mmHg 72%
15:00 +26°C° 0.7 mm 1 mps 673 mmHg 78%
16:00 +25°C° 0.7 mm 1 mps 672 mmHg 84%
17:00 +24°C° 0.7 mm 1 mps 672 mmHg 90%
18:00 +23°C° 0.3 mm 1 mps 673 mmHg 92%
19:00 +20°C° 0.3 mm 0 mps 673 mmHg 93%
20:00 +19°C° 0.3 mm 0 mps 673 mmHg 95%
21:00 +19°C° 0.2 mm 0 mps 673 mmHg 95%
22:00 +19°C° 0.2 mm 0 mps 673 mmHg 95%
23:00 +18°C° 0.2 mm 0 mps 673 mmHg 95%

Mañana, 21 Septiembre, Lunes

Tiempo Temperatura Precipitaciones Viento Presión Humedad
00:00 +18°C° 0.9 mm 0 mps 673 mmHg 95%
01:00 +18°C° 0.9 mm 0 mps 672 mmHg 95%
02:00 +18°C° 0.9 mm 0 mps 672 mmHg 95%
03:00 +18°C° 0.2 mm 0 mps 672 mmHg 94%
04:00 +20°C° 0.2 mm 1 mps 673 mmHg 93%
05:00 +20°C° 0.2 mm 1 mps 673 mmHg 92%
06:00 +19°C° 0.3 mm 2 mps 673 mmHg 92%
07:00 +19°C° 0.3 mm 3 mps 674 mmHg 91%
08:00 +20°C° 0.3 mm 4 mps 674 mmHg 90%
09:00 +20°C° 0 mm 3 mps 674 mmHg 87%
10:00 +20°C° 0 mm 3 mps 674 mmHg 84%
11:00 +21°C° 0 mm 2 mps 673 mmHg 82%
12:00 +23°C° 0 mm 2 mps 673 mmHg 78%
13:00 +24°C° 0 mm 1 mps 673 mmHg 74%
14:00 +25°C° 0 mm 1 mps 672 mmHg 71%
15:00 +25°C° 0 mm 1 mps 672 mmHg 75%
16:00 +24°C° 0 mm 1 mps 672 mmHg 79%
17:00 +22°C° 0 mm 0 mps 672 mmHg 83%
18:00 +21°C° 0 mm 0 mps 672 mmHg 83%
19:00 +20°C° 0 mm 0 mps 673 mmHg 84%
20:00 +19°C° 0 mm 0 mps 673 mmHg 84%
21:00 +19°C° 0.1 mm 0 mps 673 mmHg 84%
22:00 +18°C° 0.1 mm 0 mps 673 mmHg 84%
23:00 +18°C° 0.1 mm 0 mps 673 mmHg 85%

Pasado mañana, 22 Septiembre, Martes

Tiempo Temperatura Precipitaciones Viento Presión Humedad
00:00 +18°C° 0.3 mm 0 mps 673 mmHg 87%
01:00 +19°C° 0.3 mm 1 mps 673 mmHg 88%
02:00 +19°C° 0.3 mm 1 mps 672 mmHg 90%
03:00 +19°C° 0.3 mm 1 mps 672 mmHg 91%
04:00 +18°C° 0.3 mm 1 mps 672 mmHg 92%
05:00 +18°C° 0.3 mm 1 mps 672 mmHg 92%
06:00 +18°C° 0.1 mm 0 mps 673 mmHg 89%
07:00 +20°C° 0.1 mm 0 mps 674 mmHg 86%
08:00 +21°C° 0.1 mm 0 mps 675 mmHg 83%
09:00 +25°C° 0.3 mm 1 mps 675 mmHg 78%
10:00 +26°C° 0.3 mm 1 mps 675 mmHg 73%
11:00 +28°C° 0.3 mm 2 mps 675 mmHg 67%
12:00 +28°C° 0.3 mm 2 mps 674 mmHg 68%
13:00 +28°C° 0.3 mm 2 mps 674 mmHg 68%
14:00 +28°C° 0.3 mm 2 mps 673 mmHg 68%
15:00 +27°C° 1 mm 2 mps 673 mmHg 75%
16:00 +26°C° 1 mm 1 mps 673 mmHg 81%
17:00 +23°C° 1 mm 0 mps 672 mmHg 87%
18:00 +22°C° 0.2 mm 0 mps 673 mmHg 88%
19:00 +20°C° 0.2 mm 0 mps 673 mmHg 88%
20:00 +19°C° 0.2 mm 0 mps 674 mmHg 89%
21:00 +19°C° 0.2 mm 0 mps 674 mmHg 89%
22:00 +19°C° 0.2 mm 0 mps 674 mmHg 89%
23:00 +19°C° 0.2 mm 0 mps 673 mmHg 89%

23 Septiembre, Miércoles

Tiempo Temperatura Precipitaciones Viento Presión Humedad
00:00 +21°C° 0 mm 1 mps 673 mmHg 90%
01:00 +20°C° 0 mm 1 mps 673 mmHg 90%
02:00 +20°C° 0 mm 1 mps 672 mmHg 91%
03:00 +20°C° 0 mm 1 mps 672 mmHg 91%
04:00 +20°C° 0 mm 1 mps 672 mmHg 92%
05:00 +19°C° 0 mm 1 mps 672 mmHg 93%
06:00 +21°C° 0.1 mm 1 mps 673 mmHg 90%
07:00 +22°C° 0.1 mm 1 mps 674 mmHg 87%
08:00 +24°C° 0.1 mm 1 mps 674 mmHg 83%
09:00 +25°C° 1.1 mm 1 mps 674 mmHg 81%
10:00 +26°C° 1.1 mm 2 mps 674 mmHg 79%
11:00 +27°C° 1.1 mm 2 mps 674 mmHg 76%
12:00 +27°C° 1.3 mm 2 mps 674 mmHg 76%
13:00 +27°C° 1.3 mm 1 mps 673 mmHg 76%
14:00 +27°C° 1.3 mm 1 mps 672 mmHg 75%
15:00 +26°C° 1.4 mm 1 mps 672 mmHg 80%
16:00 +24°C° 1.4 mm 1 mps 672 mmHg 84%
17:00 +21°C° 1.4 mm 0 mps 672 mmHg 89%
18:00 +20°C° 0.2 mm 0 mps 672 mmHg 89%
19:00 +20°C° 0.2 mm 0 mps 673 mmHg 89%
20:00 +19°C° 0.2 mm 0 mps 673 mmHg 89%
21:00 +19°C° 0 mm 0 mps 673 mmHg 90%
22:00 +19°C° 0 mm 0 mps 673 mmHg 90%
23:00 +18°C° 0 mm 0 mps 672 mmHg 91%

24 Septiembre, Jueves

Tiempo Temperatura Precipitaciones Viento Presión Humedad
00:00 +18°C° 0 mm 0 mps 672 mmHg 91%
01:00 +18°C° 0 mm 0 mps 672 mmHg 91%
02:00 +18°C° 0 mm 0 mps 671 mmHg 91%
03:00 +18°C° 0 mm 0 mps 671 mmHg 91%
04:00 +17°C° 0 mm 0 mps 671 mmHg 92%
05:00 +17°C° 0 mm 0 mps 672 mmHg 92%
06:00 +19°C° 0 mm 0 mps 672 mmHg 89%
07:00 +20°C° 0 mm 0 mps 673 mmHg 86%
08:00 +21°C° 0 mm 0 mps 674 mmHg 84%
09:00 +22°C° 0.5 mm 0 mps 674 mmHg 83%
10:00 +23°C° 0.5 mm 0 mps 674 mmHg 81%
11:00 +25°C° 0.5 mm 1 mps 674 mmHg 80%
12:00 +26°C° 0.6 mm 1 mps 673 mmHg 76%
13:00 +27°C° 0.6 mm 1 mps 673 mmHg 72%
14:00 +27°C° 0.6 mm 1 mps 672 mmHg 68%
15:00 +26°C° 0.4 mm 1 mps 672 mmHg 74%
16:00 +25°C° 0.4 mm 1 mps 672 mmHg 81%
17:00 +25°C° 0.4 mm 1 mps 672 mmHg 87%
18:00 +24°C° 1.9 mm 1 mps 672 mmHg 89%
19:00 +20°C° 1.9 mm 0 mps 672 mmHg 91%
20:00 +19°C° 1.9 mm 0 mps 673 mmHg 93%
21:00 +19°C° 0.7 mm 0 mps 673 mmHg 93%
22:00 +19°C° 0.7 mm 0 mps 673 mmHg 92%
23:00 +19°C° 0.7 mm 0 mps 673 mmHg 91%

25 Septiembre, Viernes

Tiempo Temperatura Precipitaciones Viento Presión Humedad
00:00 +19°C° 0 mm 0 mps 672 mmHg 92%
01:00 +18°C° 0 mm 0 mps 672 mmHg 92%
02:00 +18°C° 0 mm 0 mps 672 mmHg 93%
03:00 +18°C° 0 mm 0 mps 672 mmHg 93%
04:00 +17°C° 0 mm 0 mps 672 mmHg 93%
05:00 +17°C° 0 mm 0 mps 672 mmHg 94%
06:00 +20°C° 0 mm 1 mps 673 mmHg 92%
07:00 +22°C° 0 mm 1 mps 673 mmHg 89%
08:00 +23°C° 0 mm 1 mps 674 mmHg 87%
09:00 +24°C° 0 mm 2 mps 674 mmHg 81%
10:00 +26°C° 0 mm 3 mps 674 mmHg 74%
11:00 +27°C° 0 mm 4 mps 674 mmHg 67%
12:00 +28°C° 0.1 mm 3 mps 674 mmHg 67%
13:00 +28°C° 0.1 mm 3 mps 673 mmHg 66%
14:00 +28°C° 0.1 mm 3 mps 673 mmHg 66%
15:00 +27°C° 0.4 mm 3 mps 673 mmHg 72%
16:00 +27°C° 0.4 mm 2 mps 672 mmHg 77%
17:00 +26°C° 0.4 mm 1 mps 672 mmHg 83%
18:00 +24°C° 0.4 mm 1 mps 672 mmHg 86%
19:00 +23°C° 0.4 mm 1 mps 673 mmHg 90%
20:00 +22°C° 0.4 mm 1 mps 673 mmHg 94%
21:00 +21°C° 1.2 mm 1 mps 673 mmHg 95%
22:00 +19°C° 1.2 mm 0 mps 673 mmHg 96%
23:00 +19°C° 1.2 mm 0 mps 673 mmHg 97%
Mostrar más